Tracking 19476 objects as of 17-Jan-2019
HD Live streaming from Space Station
objects crossing your sky now

UWE-1

Track UWE-1 now!
10-day predictions
UWE-1 is classified as:


NORAD ID: 28892
Int'l Code: 2005-043C
Perigee: 676.4 km
Apogee: 701.2 km
Inclination: 97.9 °
Period: 98.4 minutes
Semi major axis: 7059 km
RCS: 0.0173 m2 (small)
Launch date: October 27, 2005
Source: Germany (GER)
Launch site: PLESETSK MISSILE AND SPACE COMPLEX (PKMTR)

Uplink (MHz):
Downlink (MHz): 437.505
Beacon (MHz): 437.505
Mode: 1200bps AFSK
Call sign: DP0UWE
Status: Inactive

aabbcc
Your satellite tracking list
Your tracking list is empty




NASA's NSSDC Master Catalog

Two Line Element Set (TLE):
1 28892U 05043C   19017.32545188  .00000075  00000-0  23131-4 0  9991
2 28892  97.9417 164.4241 0017555 111.8860 248.4211 14.63563601705298
Source of the keplerian elements: AFSPC